This demonstration page uses our WeatherBlox Daily Observations layout. Learn more.

Left ArrowRight Arrow

Hourly Observations for May 12, 2016

Temp ( °F °C ) Dew Point ( °F °C ) Humidity (%) Winds ( mph kmh ) Pressure ( in mb ) Visibility ( mi km ) Precip ( " mm )
12:53 am 00:53 Clear 68 20 60 15.6 76 76 SW 5 7 30.03 1017 10 16 N/A
1:53 am 01:53 Clear 67 19.4 60 15.6 79 79 S 5 7 30.01 1016 10 16 N/A
2:53 am 02:53 Clear 64 17.8 59 15 84 84 N N/A 30.02 1017 10 16 N/A
3:53 am 03:53 Clear 63 17.2 60 15.6 90 90 N N/A 30.04 1017 10 16 N/A
4:53 am 04:53 Clear 62 16.7 59 15 90 90 N N/A 30.00 1016 10 16 N/A
5:53 am 05:53 Clear 59 15 57 13.9 93 93 N N/A 30.00 1016 10 16 N/A
6:53 am 06:53 Sunny with Mist and Fog 59 15 58 14.4 96 96 N N/A 30.02 1017 6 10 N/A
7:53 am 07:53 Sunny 65 18.3 60 15.6 84 84 VRB 3 6 30.02 1017 10 16 N/A
8:53 am 08:53 Sunny 67 19.4 61 16.1 81 81 WSW 6 9 30.06 1018 10 16 N/A
9:53 am 09:53 Mostly Sunny 69 20.6 61 16.1 76 76 WSW 7 11 30.07 1018 10 16 N/A
10:53 am 10:53 Sunny 72 22.2 61 16.1 68 68 N N/A 30.04 1017 10 16 N/A
11:53 am 11:53 Mostly Cloudy 73 22.8 61 16.1 66 66 VRB 6 9 30.03 1017 10 16 N/A
12:53 pm 12:53 Partly Cloudy 77 25 63 17.2 62 62 SW 8 13 30.01 1016 10 16 N/A
1:53 pm 13:53 Mostly Cloudy 77 25 64 17.8 64 64 undefined N/A 29.99 1016 10 16 N/A
2:53 pm 14:53 Cloudy 75 23.9 63 17.2 66 66 SW 9 15 29.98 1015 10 16 N/A
3:53 pm 15:53 Mostly Cloudy 78 25.6 62 16.7 58 58 W 10 17 29.94 1014 10 16 N/A
4:46 pm 16:46 Cloudy with Heavy Rain 70 21.1 65 18.3 84 84 W 6 9 29.94 1014 2 3 0.03 0.76
4:53 pm 16:53 Mostly Cloudy with Light Rain 70 21.1 65 18.3 84 84 N N/A 29.92 1013 4 6 0.04 1.02
5:00 pm 17:00 Partly Cloudy with Thunderstorms 70 21.1 67 19.4 90 90 WSW 5 7 29.94 1014 10 16 N/A
5:15 pm 17:15 Mostly Sunny 71 21.7 66 18.9 84 84 W 10 17 29.94 1014 10 16 N/A
5:53 pm 17:53 Mostly Sunny 70 21.1 64 17.8 82 82 SW 7 11 29.91 1013 10 16 N/A
6:53 pm 18:53 Sunny 71 21.7 62 16.7 73 73 WSW 6 9 29.90 1013 10 16 N/A
7:53 pm 19:53 Cloudy with Light Rain 70 21.1 63 17.2 79 79 SW 7 11 29.91 1013 10 16 N/A
8:53 pm 20:53 Cloudy with Light Rain 67 19.4 65 18.3 93 93 W 5 7 29.92 1013 10 16 0.02 0.51
9:03 pm 21:03 Cloudy with Light Rain 67 19.4 65 18.3 93 93 W 7 11 29.94 1014 9 14 0.01 0.25
9:53 pm 21:53 Cloudy with Light Rain 67 19.4 64 17.8 91 91 W 8 13 29.93 1013 10 16 0.02 0.51
10:09 pm 22:09 Cloudy with Light Rain 66 18.9 64 17.8 93 93 W 7 11 29.94 1014 10 16 N/A
10:26 pm 22:26 Cloudy with Light Rain 63 17.2 58 14.4 84 84 NW 20 31 29.94 1014 10 16 N/A
10:36 pm 22:36 Cloudy with Rain 62 16.7 58 14.4 86 86 WNW 13 20 29.97 1015 6 10 0.02 0.51
10:53 pm 22:53 Cloudy with Rain 61 16.1 57 13.9 87 87 W 6 9 29.96 1015 5 8 0.06 1.52
11:53 pm 23:53 Cloudy 61 16.1 60 15.6 97 97 WSW 6 9 29.95 1014 10 16 0.04 1.02

Powered by AerisWeather